FENGYUN 1C DEB

Satellite information

Favourite Embed

Satellite Type and Status

DEBRISIN ORBIT

Key statistics

Satellite FENGYUN 1C DEB at a glance.

Uptime

9714

Days in orbit

Revolutions

≈ 14.3

Per day

Orbit

SSO

Sun Synchronous Orbit

Inclination

98.9

Latest

Satellite identification and parameters

Extended collection of information and parameters for FENGYUN 1C DEB.

Object identification

Identified? True

Debris? True

Object name: FENGYUN 1C DEB

International designator: 1999-025AAA

Object number (NORAD): 30313

Object ID (CCSDS): 30313

Country: PEOPLES REPUBLIC OF CHINA (PRC)

Current information (Y/N): Y

RCS size: SMALL

Orbital parameters

Period: 101.021 minutes

Inclination: 98.8747 deg

SMA: 7185.127 km

Apoapsis: 847.475 km

Periapsis: 766.509 km

RAAN: 72.3708 deg

Eccentricy: 0.0056343

Argument of periapsis: 337.5823 deg

Mean anomaly: 51.197 deg

Mean motion: 14.25446961 rev/day

Mean motion (dot): 0.00006078 rev/day2

B* drag term: 0.0025494824 1/REarth

Two-line elements (TLE)

Creation date: Dec. 12, 2025, 10:14 a.m.

Reference frame: TEME

Reference center: EARTH

Epoch: Dec. 12, 2025, 4:59 a.m. UTC

TLE line 0: 0 FENGYUN 1C DEB

TLE line 1: 1 30313U 99025AAA 25346.20803472 .00006078 00000-0 25495-2 0 9999

TLE line 2: 2 30313 98.8747 72.3708 0056343 337.5823 51.1970 14.25446961970825

Live tracking on map

Real-time ground track for satellite FENGYUN 1C DEB.

In-orbit conjunctions

A list of the most updated potential collisions computed for object FENGYUN 1C DEB.

Target Orbit TCA Probability of collision Miss distance Type
COSMOS 2227 LEO 2025-11-21 06:15:57 0.0002363793 102.0 (m) PAYLOAD
DELTA 1 DEB SSO 2025-01-23 22:22:00 0.000105638 98.0 (m) DEBRIS
PICOSAT 9 LEO 2024-12-12 09:18:58 0.0001577861 242.0 (m) PAYLOAD
CZ-6A DEB LEO 2024-12-11 03:37:58 0.0001767501 957.0 (m) DEBRIS

Associated space launch

Chinese polar orbiting meteorological satellite

FENGYUN 1C DEB was lifted into orbit during the mission ‘Long March 4B | Feng Yun 1C’, on board a Long March 4B space rocket.

The launch took place on May 10, 1999, 1:33 a.m. from Launch Complex 7.

For more information about the launch, click the button.

Launch to space Long March 4B | Feng Yun 1C
Long March 4B | Feng Yun 1C

Agency: N/A

Status: Launch Successful

Launch date: May 10, 1999, 1:33 a.m. UTC

Rocket: Long March 4B

Launch pad: Launch Complex 7

Location: Taiyuan Satellite Launch Center, People's Republic of China

...

Latest news about this satellite

There are no fresh news available about this satellite. Check back as we update our databases every day.


Newsletter sign-up

Weekly statistics, charts and insights to help you stay on top of the space industry.